Regional Weather Roundup
Issued by NWS

Home | Current Version | Previous Version | Text Only | Print | Product List | Glossary On
Versions: 1 2 3 4 5 6 7 8 9 10 11 12 13 14 15 16 17 18 19 20 21 22 23 24 25 26 27 28 29 30 31 32 33 34 35 36 37 38 39 40 41 42 43 44 45 46 47 48 49 50
000
ASUS43 KOAX 231202
RWRNE

WEATHER ROUNDUP FOR NEBRASKA
NATIONAL WEATHER SERVICE OMAHA NE
700 AM CDT SUN APR 23 2017

NOTES: SATELLITE DATA IS BEING USED TO AUGMENT CLOUD COVER ABOVE
       12000 FEET.
       "FAIR" INDICATES FEW OR NO CLOUDS BELOW 12,000 FEET WITH NO
       SIGNIFICANT WEATHER AND/OR OBSTRUCTIONS TO VISIBILITY.

  * THESE STATIONS DO NOT REPORT WEATHER SUCH AS RAIN...SNOW OR FOG.

NEZ001>004-019>022-054>056-231300-
NEBRASKA PANHANDLE

CITY           SKY/WX    TMP DP  RH WIND       PRES   REMARKS
SCOTTSBLUFF    CLOUDY    41  32  70 SE9       29.98F
6HR MIN TEMP:  38; 6HR MAX TEMP:  49;

ALLIANCE       CLOUDY    40  32  73 S15       29.98F WCI  32
6HR MIN TEMP:  30; 6HR MAX TEMP:  40;

CHADRON        CLOUDY    47  31  53 S15       29.90F
6HR MIN TEMP:  47; 6HR MAX TEMP:  51;

KIMBALL        CLOUDY    36  35  97 S10       30.01F WCI  28
SIDNEY         CLOUDY    36  32  85 S12       30.04F WCI  28
6HR MIN TEMP:  32; 6HR MAX TEMP:  38;

$$

NEZ057>060-069>072-079>082-231300-
SOUTHWEST NEBRASKA

CITY           SKY/WX    TMP DP  RH WIND       PRES   REMARKS
NORTH PLATTE   CLOUDY    31  27  85 CALM      30.11F
6HR MIN TEMP:  31; 6HR MAX TEMP:  44;

IMPERIAL       CLOUDY    36  30  79 S7        30.11F WCI  30
6HR MIN TEMP:  36; 6HR MAX TEMP:  44;

LEXINGTON      CLOUDY    38  28  68 S6        30.13F WCI  33
MCCOOK         CLOUDY    33  28  81 SW6       30.14F WCI  28
6HR MIN TEMP:  32; 6HR MAX TEMP:  41;

OGALLALA       CLEAR     35  31  83 CALM      30.09F
$$

NEZ005>010-023>029-035>040-094-231300-
NORTH CENTRAL NEBRASKA

CITY           SKY/WX    TMP DP  RH WIND       PRES   REMARKS
VALENTINE      CLEAR     43  29  57 S12       30.03F
6HR MIN TEMP:  37; 6HR MAX TEMP:  50;

AINSWORTH      CLEAR     38  32  78 SW9       30.06S WCI  32
BROKEN BOW     CLOUDY    30  24  78 CALM      30.12S
6HR MIN TEMP:  27; 6HR MAX TEMP:  37;

O`NEILL        CLEAR     40  31  71 S8        30.10S WCI  34
ORD            CLEAR     35  28  75 SW5       30.12F WCI  31
6HR MIN TEMP:  34; 6HR MAX TEMP:  42;

THEDFORD       CLOUDY    37  30  77 S7        30.09S WCI  31
$$

NEZ041-046>049-061>064-073>077-083>087-231300-
SOUTH CENTRAL NEBRASKA

CITY           SKY/WX    TMP DP  RH WIND       PRES   REMARKS
GRAND ISLAND   PTCLDY    38  30  73 S7        30.16F WCI  33
6HR MIN TEMP:  37; 6HR MAX TEMP:  49;

AURORA         CLEAR     39  28  63 SW7       30.16F WCI  34
HASTINGS       CLEAR     42  27  55 S5        30.17F
6HR MIN TEMP:  39; 6HR MAX TEMP:  47;

HEBRON         CLEAR     31  29  94 CALM      30.19R
HOLDREGE       CLOUDY    35  26  71 S7        30.15F WCI  29
KEARNEY *      CLEAR     36  27  69 S7        30.16F WCI  30
YORK           CLEAR     37  28  70 SW5       30.17S WCI  34
$$

NEZ011>018-030>034-042>045-231300-
NORTHEAST NEBRASKA

CITY           SKY/WX    TMP DP  RH WIND       PRES   REMARKS
NORFOLK        CLEAR     42  31  64 S13       30.13F
6HR MIN TEMP:  36; 6HR MAX TEMP:  46;

ALBION         CLEAR     41  29  62 CALM      30.14F
BLAIR          CLEAR     45  33  61 W5        30.16S
FREMONT        CLEAR     39  33  80 CALM      30.17S
TEKAMAH        CLEAR     39  36  89 S5        30.16S
6HR MIN TEMP:  39; 6HR MAX TEMP:  45;

WAYNE          CLEAR     38  32  78 S7        30.13F WCI  33
$$

NEZ050>053-065>068-078-088>093-231300-
SOUTHEAST NEBRASKA

CITY           SKY/WX    TMP DP  RH WIND       PRES   REMARKS
LINCOLN        CLEAR     35  32  88 CALM      30.19S
6HR MIN TEMP:  32; 6HR MAX TEMP:  42;

OMAHA EPPLEY   CLEAR     41  35  79 SE3       30.17R
6HR MIN TEMP:  40; 6HR MAX TEMP:  47;

BEATRICE       CLEAR     35  32  90 CALM      30.18S
FALLS CITY     CLEAR     36  34  92 NW3       30.18R
6HR MIN TEMP:  36; 6HR MAX TEMP:  47;

NEBRASKA CITY  CLEAR     43  28  56 W10       30.18R
PLATTSMOUTH    CLEAR     44  26  50 CALM      30.17S
$$

NEZ044-045-051>053-067-231300-
OMAHA AREA

CITY           SKY/WX    TMP DP  RH WIND       PRES   REMARKS
OMAHA EPPLEY   CLEAR     41  35  79 SE3       30.17R
6HR MIN TEMP:  40; 6HR MAX TEMP:  47;

BLAIR          CLEAR     45  33  61 W5        30.16S
FREMONT        CLEAR     39  33  80 CALM      30.17S
MILLARD        CLEAR     39  38  96 CALM      30.18R FOG
OFFUTT AFB     CLEAR     31  29  93 CALM      30.17R
PLATTSMOUTH    CLEAR     44  26  50 CALM      30.17S
WAHOO          FAIR      37  32  84 CALM      30.17S
$$



USA.gov is the U.S. government's official web portal to all federal, state and local government web resources and services.